Weather History for Boulder City, NV

Change the Weather History Date:

Friday, August 30, 2013

  Actual Average (KLAS) Record (KLAS)
Temperature  
Mean Temperature 80 °F 88 °F  
Max Temperature 87 °F 100 °F 112 °F (1948)
Min Temperature 73 °F 77 °F 55 °F (1947)
Degree Days  
Heating Degree Days 0 0  
Month to date heating degree days 0  
Since 1 June heating degree days 1  
Since 1 July heating degree days 0  
Cooling Degree Days 15 23  
Month to date cooling degree days 771  
Year to date cooling degree days 2825  
Since 1 June cooling degree days 2275  
Growing Degree Days 30 (Base 50)    
Moisture  
Dew Point 68 °F    
Average Humidity 64    
Maximum Humidity 94    
Minimum Humidity 49    
Precipitation  
Precipitation 0.05 in 0.01 in 0.06 in (1992)
Month to date precipitation 0.32  
Year to date precipitation 2.80  
Snow  
Snow 0.00 in 0.00 in 0.00 in ()
Month to date snowfall 0.0  
Since 1 June snowfall 0.0  
Since 1 July snowfall 0.0  
Snow Depth -    
Sea Level Pressure  
Sea Level Pressure 30.05 in    
Wind  
Wind Speed 7 mph (SE)    
Max Wind Speed 14 mph    
Max Gust Speed -    
Visibility 10 miles    
Events Thunderstorm    
T = Trace of Precipitation, MM = Missing Value Source: NWS Daily Summary

Daily Weather History Graph

Daily Weather History Graph

Search for Another Location

Airport:

Trip Planner

Search our weather history database for the weather conditions in past years. The results will help you decide how hot, cold, wet, or windy it might be!

Date:

Astronomy

Aug. 30, 2013 Rise Set
Actual Time 6:09 AM PDT 7:09 PM PDT
Civil Twilight 5:43 AM PDT 7:35 PM PDT
Nautical Twilight 5:12 AM PDT 8:06 PM PDT
Astronomical Twilight 4:40 AM PDT 8:38 PM PDT
Moon 12:57 AM PDT (8/30) 3:22 PM PDT (8/30)
Length of Visible Light 13h 51m
Length of Day
12h 59m
Waning Crescent, 28% of the Moon is Illuminated
Aug 30
Waning Crescent
Sep 5
New
Sep 12
First Quarter
Sep 19
Full
Sep 26
Last Quarter

Hourly Weather History & Observations

Time (PDT) Temp. Heat Index Dew Point Humidity Pressure Visibility Wind Dir Wind Speed Gust Speed Precip Events Conditions
12:15 AM 78.8 °F - 66.2 °F 65% 30.07 in 10.0 mi ESE 11.5 mph - N/A   Clear
12:35 AM 77.0 °F - 66.2 °F 69% 30.07 in 10.0 mi East 12.7 mph - N/A   Clear
12:55 AM 77.0 °F - 66.2 °F 69% 30.07 in 10.0 mi ESE 13.8 mph - N/A   Clear
1:15 AM 77.0 °F - 66.2 °F 69% 30.07 in 10.0 mi SE 12.7 mph - N/A   Scattered Clouds
1:35 AM 77.0 °F - 66.2 °F 69% 30.07 in 10.0 mi ESE 12.7 mph - N/A   Partly Cloudy
1:55 AM 77.0 °F - 66.2 °F 69% 30.06 in 10.0 mi SE 11.5 mph - N/A   Clear
2:15 AM 77.0 °F - 64.4 °F 65% 30.06 in 10.0 mi SE 10.4 mph - N/A   Partly Cloudy
2:35 AM 78.8 °F - 64.4 °F 61% 30.06 in 10.0 mi SSE 6.9 mph - N/A   Scattered Clouds
2:55 AM 78.8 °F - 64.4 °F 61% 30.06 in 10.0 mi SE 9.2 mph - N/A   Clear
3:15 AM 78.8 °F - 64.4 °F 61% 30.05 in 10.0 mi SE 6.9 mph - N/A   Partly Cloudy
3:35 AM 77.0 °F - 66.2 °F 69% 30.05 in 10.0 mi East 8.1 mph - N/A   Scattered Clouds
3:55 AM 77.0 °F - 66.2 °F 69% 30.06 in 10.0 mi ESE 5.8 mph - N/A   Partly Cloudy
4:15 AM 77.0 °F - 66.2 °F 69% 30.06 in 10.0 mi ESE 12.7 mph - N/A   Clear
4:35 AM 77.0 °F - 66.2 °F 69% 30.06 in 10.0 mi ESE 8.1 mph - N/A   Clear
4:55 AM 77.0 °F - 66.2 °F 69% 30.07 in 10.0 mi East 10.4 mph - N/A   Clear
5:15 AM 77.0 °F - 66.2 °F 69% 30.07 in 10.0 mi ESE 9.2 mph - N/A   Clear
5:35 AM 77.0 °F - 66.2 °F 69% 30.08 in 10.0 mi ESE 10.4 mph - N/A   Mostly Cloudy
5:55 AM 77.0 °F - 66.2 °F 69% 30.08 in 10.0 mi ESE 6.9 mph - N/A   Mostly Cloudy
7:15 AM 77.0 °F - 68.0 °F 74% 30.11 in 10.0 mi SSE 9.2 mph - N/A   Mostly Cloudy
7:35 AM 77.0 °F - 68.0 °F 74% 30.11 in 10.0 mi South 9.2 mph - N/A   Mostly Cloudy
7:55 AM 77.0 °F - 68.0 °F 74% 30.11 in 10.0 mi South 4.6 mph - N/A   Mostly Cloudy
8:15 AM 77.0 °F - 69.8 °F 78% 30.12 in 6.0 mi SSE 11.5 mph - N/A   Haze
8:35 AM 73.4 °F - 71.6 °F 94% 30.13 in 1.5 mi Calm Calm - 0.02 in   Overcast
8:55 AM 73.4 °F - 71.6 °F 94% 30.13 in 9.0 mi NW 4.6 mph - 0.04 in Thunderstorm Thunderstorm
9:15 AM 73.4 °F - 69.8 °F 88% 30.13 in 10.0 mi NW 5.8 mph - N/A   Mostly Cloudy
9:35 AM 75.2 °F - 71.6 °F 89% 30.13 in 10.0 mi Calm Calm - N/A   Scattered Clouds
9:55 AM 75.2 °F - 71.6 °F 89% 30.13 in 10.0 mi ESE 3.5 mph - 0.01 in   Partly Cloudy
10:15 AM 77.0 °F - 71.6 °F 83% 30.13 in 10.0 mi East 3.5 mph - N/A   Clear
10:35 AM 78.8 °F - 71.6 °F 78% 30.13 in 10.0 mi SSE 3.5 mph - N/A   Clear
10:55 AM 80.6 °F 83.9 °F 69.8 °F 70% 30.13 in 10.0 mi SE 3.5 mph - N/A   Clear
11:15 AM 80.6 °F 84.6 °F 71.6 °F 74% 30.12 in 10.0 mi Calm Calm - N/A   Clear
11:35 AM 82.4 °F 87.2 °F 71.6 °F 70% 30.12 in 10.0 mi Calm Calm - N/A   Partly Cloudy
11:55 AM 82.4 °F 87.2 °F 71.6 °F 70% 30.11 in 10.0 mi ESE 5.8 mph - N/A   Partly Cloudy
12:15 PM 82.4 °F 87.2 °F 71.6 °F 70% 30.11 in 10.0 mi East 8.1 mph - N/A   Partly Cloudy
12:35 PM 82.4 °F 86.3 °F 69.8 °F 66% 30.10 in 10.0 mi ENE 3.5 mph - N/A   Partly Cloudy
12:55 PM 84.2 °F 87.3 °F 68.0 °F 58% 30.09 in 10.0 mi North 4.6 mph - N/A   Partly Cloudy
1:15 PM 86.0 °F 89.4 °F 68.0 °F 55% 30.08 in 10.0 mi SSE 3.5 mph - N/A   Clear
1:35 PM 86.0 °F 89.4 °F 68.0 °F 55% 30.07 in 10.0 mi SE 4.6 mph - N/A   Clear
1:55 PM 87.8 °F 91.4 °F 68.0 °F 52% 30.06 in 10.0 mi SE 6.9 mph - N/A   Clear
2:15 PM 87.8 °F 91.4 °F 68.0 °F 52% 30.05 in 10.0 mi South 6.9 mph - N/A   Clear
2:35 PM 86.0 °F 89.4 °F 68.0 °F 55% 30.03 in 10.0 mi South 5.8 mph - N/A   Clear
2:55 PM 86.0 °F 89.4 °F 68.0 °F 55% 30.03 in 10.0 mi South 3.5 mph - N/A   Clear
3:15 PM 86.0 °F 89.4 °F 68.0 °F 55% 30.02 in 10.0 mi South 3.5 mph - N/A   Clear
3:35 PM 86.0 °F 89.4 °F 68.0 °F 55% 30.01 in 10.0 mi SSE 3.5 mph - N/A   Clear
3:55 PM 86.0 °F 89.4 °F 68.0 °F 55% 30.01 in 10.0 mi South 5.8 mph - N/A   Clear
4:15 PM 86.0 °F 89.4 °F 68.0 °F 55% 30.01 in 10.0 mi South 3.5 mph - N/A   Clear
4:35 PM 87.8 °F 90.4 °F 66.2 °F 49% 30.00 in 10.0 mi South 5.8 mph - N/A   Clear
4:55 PM 87.8 °F 91.4 °F 68.0 °F 52% 29.99 in 10.0 mi South 3.5 mph - N/A   Clear
5:15 PM 87.8 °F 90.4 °F 66.2 °F 49% 29.99 in 10.0 mi SSW 5.8 mph - N/A   Clear
5:35 PM 87.8 °F 90.4 °F 66.2 °F 49% 29.99 in 10.0 mi SSE 4.6 mph - N/A   Clear
5:55 PM 87.8 °F 91.4 °F 68.0 °F 52% 29.99 in 10.0 mi South 5.8 mph - N/A   Clear
6:15 PM 87.8 °F 90.4 °F 66.2 °F 49% 29.99 in 10.0 mi SSE 6.9 mph - N/A   Clear
6:35 PM 87.8 °F 90.4 °F 66.2 °F 49% 29.99 in 10.0 mi South 3.5 mph - N/A   Clear
6:55 PM 87.8 °F 91.4 °F 68.0 °F 52% 29.99 in 10.0 mi South 3.5 mph - N/A   Clear
7:15 PM 87.8 °F 91.4 °F 68.0 °F 52% 29.99 in 10.0 mi SSW 3.5 mph - N/A   Clear
7:35 PM 86.0 °F 89.4 °F 68.0 °F 55% 29.99 in 10.0 mi Calm Calm - N/A   Clear
7:55 PM 86.0 °F 89.4 °F 68.0 °F 55% 30.00 in 10.0 mi SSW 6.9 mph - N/A   Clear
8:15 PM 86.0 °F 89.4 °F 68.0 °F 55% 30.00 in 10.0 mi Calm Calm - N/A   Clear
8:35 PM 84.2 °F 87.3 °F 68.0 °F 58% 30.01 in 10.0 mi South 3.5 mph - N/A   Clear
8:55 PM 84.2 °F 87.3 °F 68.0 °F 58% 30.01 in 10.0 mi Calm Calm - N/A   Clear
9:15 PM 84.2 °F 87.3 °F 68.0 °F 58% 30.01 in 10.0 mi North 3.5 mph - N/A   Clear
9:35 PM 82.4 °F 86.3 °F 69.8 °F 66% 30.01 in 10.0 mi Calm Calm - N/A   Clear
9:55 PM 82.4 °F 86.3 °F 69.8 °F 66% 30.02 in 10.0 mi Calm Calm - N/A   Clear
10:15 PM 84.2 °F 86.6 °F 66.2 °F 55% 30.01 in 10.0 mi Calm Calm - N/A   Clear
10:35 PM 82.4 °F 85.4 °F 68.0 °F 62% 30.01 in 10.0 mi Calm Calm - N/A   Clear
10:55 PM 82.4 °F 85.4 °F 68.0 °F 62% 30.01 in 10.0 mi Calm Calm - N/A   Clear
11:15 PM 82.4 °F 85.4 °F 68.0 °F 62% 30.01 in 10.0 mi South 3.5 mph - N/A   Clear
11:35 PM 82.4 °F 85.4 °F 68.0 °F 62% 30.00 in 10.0 mi South 3.5 mph - N/A   Clear
11:55 PM 82.4 °F 85.4 °F 68.0 °F 62% 30.01 in 10.0 mi Calm Calm - N/A   Clear